Погода в Борисовском

Россия / Тверская область     57°39′40″N   34°09′28″E
темп.,
°C
ветер,
м/с
пор.,
м/с
влажн.,
%
обл.,
%
осадки,
мм/ч
давл.,
гПа
погр.,
м
16 мая, вс
вс1600:00+11ю39964 0.0 1006233
03:00+10ю29974 0.0 1006216
06:00+11ююз399636 0.5 1006310
09:00+16юз587248 0.5 1008973
12:00+17юз467465 0.4 10091055
15:00+18з466948 1.3 10101262
18:00+18зсз367122 0.6 1010793
21:00+13зсз11910 0.7 101211
17 мая, пн
пн1700:00+11ю119362 0.0 101310
03:00+11юв119464 0.0 101412
06:00+12юв2492100 0.0 1015118
09:00+18юв3568100 0.0 1014519
12:00+22юв465245 0.0 10141532
15:00+24юв4643100 0.0 10121925
18:00+22вюв4854100 0.0 10111460
21:00+16в4138680 0.7 1010406
18 мая, вт
вт1800:00+16вюв41494100 0.0 1009478
03:00+15вюв3119849 0.0 1008315
06:00+15вюв4139350 0.0 1007435
09:00+20юв6126698 0.0 1006722
12:00+24ююв6125299 0.0 10061540
15:00+26ююв6114858 0.0 10052051
18:00+21ююв51177100 3.3 1006529
21:00+18ю41187100 9.6 1007322
19 мая, ср
ср1900:00+16ююв21096100 1.2 1007228
03:00+15в2496100 1.8 100684
06:00+15вюв31095100 0.0 1005288
09:00+19юв51081100 0.1 1005563
12:00+22ююв51261100 0.6 10051690
15:00+25ю6165074 0.6 10052624
18:00+17ююз2108997 4.8 1005436
21:00+15ююв39915 5.1 1005226
20 мая, чт
чт2000:00+14юв2898100 0.3 1006190
03:00+14вюв31097100 0.4 1004319
06:00+14юв41195100 0.1 1003603
09:00+15юв489370 0.3 1003663
12:00+17юв5882100 1.6 1003952
15:00+17ююв598419 4.7 10031097
18:00+16ююз488799 2.8 1003815
21:00+13ююз5119428 4.6 1004678